Regional Weather Roundup
Issued by NWS

Home | Current Version | Previous Version | Text Only | Print | Product List | Glossary On
Versions: 1 2 3 4 5 6 7 8 9 10 11 12 13 14 15 16 17 18 19 20 21 22 23 24 25 26 27 28 29 30 31 32 33 34 35 36 37 38 39 40 41 42 43 44 45 46 47 48 49 50
556
ASUS43 KMPX 200010
RWRMN
WEATHER ROUNDUP FOR MINNESOTA
NATIONAL WEATHER SERVICE TWIN CITIES/CHANHASSEN MN
600 PM CST SUN FEB 19 2017


NOTE: "FAIR" INDICATES FEW OR NO CLOUDS BELOW 12,000 FEET WITH NO
SIGNIFICANT WEATHER AND/OR OBSTRUCTIONS TO VISIBILITY. N/A MEANS
CURRENT SKY AND/OR WEATHER CONDITIONS ARE NOT AVAILABLE.

MNZ060>063-068>070-200100-
   Twin Cities Metro

CITY           SKY/WX    TMP DP  RH WIND       PRES   REMARKS
TWIN CITIES    CLOUDY    53  39  59 SE14      29.88S
6HR MIN TEMP:  53; 6HR MAX TEMP:  59;

ST PAUL        CLOUDY    52  39  61 SE10      29.89S
CRYSTAL        PTCLDY    66  37  34 SE13      29.86R
BLAINE         CLOUDY    55  39  54 SE13G18   29.87S
LAKEVILLE        N/A     50  43  76 SE5       29.88S
EDEN PRAIRIE   PTCLDY    52  41  66 SE10      29.86R
6HR MIN TEMP:  52; 6HR MAX TEMP:  60;

SOUTH ST PAUL  CLOUDY    54  37  54 SE7       29.89S
LAKE ELMO      FAIR      52  37  58 SE6       29.90S
$$
MNZ001>005-007-008-013>017-022>024-027-028-200100-
   Northwest Minnesota

CITY           SKY/WX    TMP DP  RH WIND       PRES   REMARKS
BEMIDJI        CLEAR     44  32  60 SE12      29.76R
HALLOCK        PTCLDY    43  34  70 E17       29.64F
ROSEAU         PTCLDY    39  34  81 E14       29.72F
WARROAD        PTCLDY    39  34  81 E14       29.76F
THIEF RVR FALL CLOUDY    41  33  73 SE15      29.67
CROOKSTON      CLOUDY    45  37  76 SE16      29.64S
FOSSTON        CLOUDY    45  34  65 SE15G23   29.68F
DETROIT LAKES  CLOUDY    46  37  71 SE18G25   29.70R
MOORHEAD       CLOUDY    52  45  76 SE17G23   29.64R
PARK RAPIDS    CLOUDY    47  32  56 SE10      29.74F
MAHNOMEN       FAIR      48  36  62 SE18G30   29.67S
$$
MNZ006-009>011-018-025>026-200100-
   North Central Minnesota

CITY           SKY/WX    TMP DP  RH WIND       PRES   REMARKS
BAUDETTE       PTCLDY    40  30  67 E14       29.79F
FLAG ISLAND    PTCLDY    43  30  61 E14G20    29.78F
INTL FALLS     MOCLDY    43  30  60 E14       29.85F
6HR MIN TEMP:  41; 6HR MAX TEMP:  45; 6HR PCP: TRACE;

WASKISH        CLOUDY    48  30  49 E9        29.78S
BIG FORK       CLOUDY    48  30  49 SE9       29.83F
LONGVILLE      CLOUDY    48  30  49 SE6       29.80F
GRAND RAPIDS   CLOUDY    46  30  53 SE12      29.86S
CRANE LAKE     MOCLDY    43  30  61 CALM      29.92S
ORR            PTCLDY    46  27  46 CALM      29.86F
COOK           CLOUDY    46  28  49 SE7       29.90S
WALKER         FAIR      46  32  57 SE7       29.78S
$$
MNZ012-019>021-037-200100-
   Northeast Minnesota

CITY           SKY/WX    TMP DP  RH WIND       PRES   REMARKS
DULUTH         PTCLDY    38  30  73 E20       29.94S
6HR MIN TEMP:  38; 6HR MAX TEMP:  43;

ELY            CLOUDY    39  28  65 SE8       29.95R
HIBBING        PTCLDY    41  28  60 SE10      29.90R
EVELETH        PTCLDY    42  25  50 E9        29.92S
DULUTH HARBOR  CLOUDY    36  34  93 NE13      29.99S
TWO HARBORS    PTCLDY    39  30  70 E14G20    29.97S
GRAND MARAIS     N/A     37  28  70 NE10G21   30.06S
G MARAIS ARPRT PTCLDY    32  25  74 NE9       30.02S WCI  24
$$
MNZ029>031-032-039>041-046>048-054>057-064-200100-
   West Central Minnesota

CITY           SKY/WX    TMP DP  RH WIND       PRES   REMARKS
FERGUS FALLS   CLOUDY    52  45  76 SE21G28   29.71R
WHEATON        CLOUDY    52  46  82 SE18      29.67R
MORRIS         PTCLDY    52  48  87 SE17      29.69R
ALEXANDRIA     PTCLDY    51  43  74 SE20G26   29.73S
ELBOW LAKE     FAIR      50  45  83 E18G24    29.69R
WADENA         PTCLDY    46  37  71 E12       29.73S
GLENWOOD       CLOUDY    50  45  81 SE15      29.74S
APPLETON       PTCLDY    55  48  76 SE10      29.68S
BENSON         PTCLDY    57  46  67 S16       29.72S
ORTONVILLE     PTCLDY    52  48  87 CALM      29.67R
WILLMAR        FAIR      54  48  82 CALM      29.77R
$$
MNZ033>034-036-042>043-049>051-058-059-200100-
   Central Minnesota

CITY           SKY/WX    TMP DP  RH WIND       PRES   REMARKS
ST CLOUD       CLOUDY    53  41  63 E8        29.82R
6HR MIN TEMP:  52; 6HR MAX TEMP:  58;

SAUK CENTRE    FAIR      50  42  74 E14       29.75F
PAYNESVILLE    CLOUDY    53  44  70 SE14G24   29.77F
AITKIN         PTCLDY    54  28  37 SE9       29.82F
PINE RIVER     PTCLDY    48  36  61 SE14      29.82F
BRAINERD       PTCLDY    50  35  56 SE12G20   29.81S
STAPLES        CLOUDY    48  36  61 SE7       29.77S
LONG PRAIRIE   FAIR      50  39  66 E16G22    29.76F
LITTLE FALLS   CLOUDY    50  36  57 E12       29.80S
LITCHFIELD     CLOUDY    54  46  76 SE15      29.79F
BUFFALO        CLOUDY    54  41  62 SE14      29.84S
MAPLE LAKE     PTCLDY    52  43  71 SE8       29.83S
HUTCHINSON     PTCLDY    53  48  83 SE14      29.81F
$$
MNZ037-044-045-052-053-200100-
   East Central Minnesota

CITY           SKY/WX    TMP DP  RH WIND       PRES   REMARKS
PRINCETON      CLOUDY    54  39  58 E8        29.85S
MORA           CLOUDY    48  36  61 E7        29.88F
CAMBRIDGE      CLOUDY    54  39  58 SE7       29.85S
RUSH CITY      CLOUDY    50  36  57 E6        29.89S
MOOSE LAKE     PTCLDY    39  32  75 E6        29.90R
HINCKLEY       FAIR      52  34  50 E7        29.89S
CLOQUET        CLOUDY    37  28  70 E9G17     29.94R
MCGREGOR       PTCLDY    43  32  65 E9        29.87S
$$
MNZ071>073-080-081-089-090-097-098-200100-
   Southwest Minnesota

CITY           SKY/WX    TMP DP  RH WIND       PRES   REMARKS
MONTEVIDEO     PTCLDY    55  50  82 S15       29.72S
GRANITE FALLS  PTCLDY    58  53  84 SE15G22   29.73S
CANBY          PTCLDY    59  50  71 E16       29.69R
MARSHALL       CLOUDY    57  51  80 SE16      29.71S
REDWOOD FALLS  CLOUDY    56  51  84 SE15      29.76S
OLIVIA         PTCLDY    54  50  87 SE12      29.76R
PIPESTONE      PTCLDY    55  46  71 S15       29.72R
WINDOM         PTCLDY    57  50  77 SE14      29.78S
WORTHINGTON    CLOUDY    56  49  77 S13       29.77S
JACKSON        PTCLDY    54  48  82 SE13      29.79S
TRACY          PTCLDY    57  52  84 SE14      29.73S
SLAYTON        PTCLDY    54  49  83 SE14      29.75S
$$
MNZ065>067-074>077-082>085-091>093-200100-
   South Central Minnesota

CITY           SKY/WX    TMP DP  RH WIND       PRES   REMARKS
MANKATO          N/A     52  47  83 SE15      29.84S
NEW ULM        CLOUDY    55  48  76 SE15G21   29.80F
ST JAMES       PTCLDY    55  52  88 SE14      29.81S
FAIRMONT       CLOUDY    56  51  84 SE15      29.81F
GLENCOE        CLOUDY    53  49  86 E13       29.82S
FARIBAULT      PTCLDY    52  45  76 SE10      29.88S
OWATONNA       PTCLDY    52  45  76 SE14      29.88S
WASECA         CLOUDY    52  45  76 SE10      29.88S
ALBERT LEA     PTCLDY    54  46  76 SE10      29.88S
$$
MNZ078>079-086>088-094>096-200100-
   Southeast Minnesota

CITY           SKY/WX    TMP DP  RH WIND       PRES   REMARKS
ROCHESTER      CLOUDY    47  41  80 SE12      29.93R
6HR MIN TEMP:  47; 6HR MAX TEMP:  57;

RED WING       CLOUDY    54  36  50 SE8       29.91S
STANTON        CLOUDY    55  42  62 SE9       29.87S
DODGE CENTER   MOCLDY    46  43  87 SE13      29.91R
WINONA         CLOUDY    54  36  50 CALM      29.95S
AUSTIN         CLOUDY    46  43  87 SE7       29.90S
PRESTON        CLOUDY    52  40  64 SE8       29.94R
$$
ABBREVIATIONS USED IN REMARKS
   TC - TEMPERATURES IN CELSIUS
  WCI - WIND CHILL INDEX
   HX - HEAT INDEX
  VSB - VISIBILITY
$$




USA.gov is the U.S. government's official web portal to all federal, state and local government web resources and services.